Regional Weather Roundup
Issued by NWS

Home | Current Version | Previous Version | Text Only | Print | Product List | Glossary On
Versions: 1 2 3 4 5 6 7 8 9 10 11 12 13 14 15 16 17 18 19 20 21 22 23 24 25 26 27 28 29 30 31 32 33 34 35 36 37 38 39 40 41 42 43 44 45 46 47 48 49 50
000
ASUS44 KMEG 190710
RWRTN
TENNESSEE HOURLY STATE WEATHER ROUNDUP
NATIONAL WEATHER SERVICE MEMPHIS TN
200 AM CDT FRI SEP 19 2014

TNZ002-004-019-021-049-052-054-088>092-190800-
WEST TENNESSEE

CITY           SKY/WX    TMP DP  RH WIND       PRES   REMARKS
MEMPHIS INTL   CLOUDY    70  66  87 E7        30.00S
NWS MEMPHIS      N/A     67 N/A N/A MISG        N/A
JACKSON        CLEAR     63  60  90 NE3       30.02S
DYERSBURG      MOCLDY    63  52  67 NE3       30.03F
UNION CITY     PTCLDY    61  57  88 NE3       30.03S
PARIS          PTCLDY    55  54  94 NE3       30.05S
HUNTINGDON     CLOUDY    61  59  93 NE6       30.04S
LEXINGTON      CLOUDY    63  61  94 N5        30.02F
SAVANNAH       CLEAR     64  64 100 CALM      30.01F
$$

TNZ008-025-027-028-033-062-065-066-190800-
NORTH MIDDLE TENNESSEE

CITY           SKY/WX    TMP DP  RH WIND       PRES   REMARKS
NASHVILLE      PTCLDY    62  59  90 NE6       30.04F
DICKSON        PTCLDY    61  57  88 CALM      30.04S
PORTLAND       CLEAR     55  54  94 CALM      30.05S
CLARKSVILLE    CLEAR     57  53  86 N3        30.05S
LEBANON        PTCLDY    57  57 100 CALM      30.04R
SMYRNA         CLEAR     59  57  92 CALM      30.05S
MURFREESBORO   CLEAR     61  58  90 CALM      30.04R
COOKEVILLE     CLEAR     54  52  94 CALM      30.05S
LIVINGSTON     CLEAR     59  55  86 NE5       30.08R
GALLATIN       CLEAR     61  58  90 CALM      30.06R
CROSSVILLE     CLEAR     58  54  86 CALM      30.10R FOG
$$

TNZ061-075-076-078-094-096-097-190800-
SOUTH MIDDLE TENNESSEE

CITY           SKY/WX    TMP DP  RH WIND       PRES   REMARKS
LEWISBURG      MOCLDY    60  58  93 CALM      30.03S
FAYETTEVILLE   CLEAR     63  57  82 CALM      30.03S
TULLAHOMA      PTCLDY    63  59  88 CALM      30.05S
WINCHESTER     MOCLDY    63  57  82 CALM      30.04S
MCMINNVILLE    PTCLDY    61  61 100 CALM      30.05S
COLUMBIA       PTCLDY    61  61 100 CALM      30.02S
SHELBYVILLE    PTCLDY    59  59 100 CALM      30.04S
$$

TNZ017-018-042-046-047-190800-
NORTHEAST TENNESSEE

CITY           SKY/WX    TMP DP  RH WIND       PRES   REMARKS
TRI CITIES     CLEAR     55  51  86 N3        30.09S
ELIZABETHTON   SUNNY     55  54  94 CALM      30.10S
$$

TNZ012-013-036-069-073-074-190800-
CENTRAL EAST TENNESSEE

CITY           SKY/WX    TMP DP  RH WIND       PRES   REMARKS
KNOXVILLE      MOCLDY    61  57  87 NE5       30.05R
OAK RIDGE      CLEAR     60  57  89 CALM      30.08R
GATLINBURG     SUNNY     57  55  94 CALM      30.06S
MORRISTOWN     SUNNY     61  54  77 NE5       30.08S
$$

TNZ083-085-099-190800-
SOUTHEAST TENNESSEE

CITY           SKY/WX    TMP DP  RH WIND       PRES   REMARKS
CHATTANOOGA    PTCLDY    65  60  84 N5        30.04S
$$

SKY/WX REPORTED AS FAIR MEANS FEW OR NO CLOUDS BELOW
12 THOUSAND FEET.




USA.gov is the U.S. government's official web portal to all federal, state and local government web resources and services.